User: anonymous   Login
Location: Kelshall
(52.0000°N, 0.0500°W)
Time: 01:47:45
(UTC+00:00)
Language:

Meteor 1-22 Rocket - Orbit

View from above orbital plane
View from above orbital plane
View from above satellite
View from above satellite

Ground track
Ground track

The orbit data is extracted from the following two-line orbital elements,

1  8294U 75087B   20328.48552662 -.00000021 +00000-0 -19267-4 0  9997
2  8294 081.2172 239.0442 0106767 101.6042 259.7136 14.08652510321327
Epoch (UTC): 23 November 2020 11:39:09
Eccentricity: 0.0106767
inclination: 81.2172°
perigee height: 786 km
apogee height: 941 km
right ascension of ascending node: 239.0442°
argument of perigee: 101.6042°
revolutions per day: 14.08652510
mean anomaly at epoch: 259.7136°
orbit number at epoch: 32132

The dashed part of the orbit path shows where the satellite is in the earth's shadow,  

DLR